Weather Roundup
Issued by NWS

Home | Current Version | Previous Version | Text Only | Print | Product List | Glossary On
Versions: 1 2 3 4 5 6 7 8 9 10 11 12 13 14 15 16 17 18 19 20 21 22 23 24 25 26 27 28 29 30 31 32 33 34 35 36 37 38 39 40 41 42 43 44 45 46 47 48 49 50
000
NZUS93 KARX 271759
HRRWXR

CURRENT HOURLY OBSERVATIONS ACROSS
MUCH OF THE UPPER MISSISSIPPI VALLEY
NATIONAL WEATHER SERVICE LA CROSSE WI
100 PM CDT WED MAY 27 2015


...SOUTHEAST MINNESOTA...


CITY           SKY/WX    TMP DP  RH WIND       PRES   REMARKS
ROCHESTER      FAIR      74  61  63 SW15      30.00S
ROCHESTER/MAYO FAIR      74  57  56 W13G21    29.99S
WINONA         FAIR      73  57  56 SW8       29.98R
AUSTIN         FAIR      73  57  56 SW13      30.00S
ALBERT LEA     FAIR      75  57  53 SW9       30.00S
DODGE CENTER   FAIR      75  59  57 SW12      29.99S
PRESTON        FAIR      72  58  60 SW10      30.01S
OWATONNA       FAIR      75  59  57 SW9G16    29.99R
FARIBAULT      FAIR      75  61  60 SW8       29.98S
$$

...ELSEWHERE IN MINNESOTA...


CITY           SKY/WX    TMP DP  RH WIND       PRES   REMARKS
MINNEAPOLIS    FAIR      76  58  53 W10       29.95R
INTNL FALLS    FAIR      76  49  38 NW10      29.90R
DULUTH         FAIR      79  53  40 W9G20     29.88R
RED WING       FAIR      77  57  50 SW9       29.95R
REDWOOD FALLS  FAIR      80  56  43 W9        29.97S
MANKATO        FAIR      75  57  53 W12       29.98S
WORTHINGTON    FAIR      79  50  36 W12       30.02S
FAIRMONT       FAIR      79  55  44 W9        30.00S
$$

...SOUTHWEST WISCONSIN...


CITY           SKY/WX    TMP DP  RH WIND       PRES   REMARKS
LA CROSSE      FAIR      76  58  53 VRB7      29.98R
PRAIRIE DU CHI FAIR      73  56  55 S6        30.01R
BOSCOBEL       FAIR      73  56  54 VRB3      30.02R
LONE ROCK      NOT AVBL
PLATTEVILLE    PTSUNNY   71  59  66 NW8       30.03R
FORT MC COY    FAIR      72  53  51 W9        29.99R
VIROQUA        FAIR      71  55  57 CALM      30.02R
WIS DELLS      PTSUNNY   68  52  57 NW5       30.00R
$$

...ELSEWHERE IN WISCONSIN...


CITY           SKY/WX    TMP DP  RH WIND       PRES   REMARKS
MILWAUKEE      PTSUNNY   69  55  60 W15G23    29.96R
MADISON        PTSUNNY   70  57  63 N10       30.00R
GREEN BAY      PTSUNNY   66  59  78 W9        29.93S
EAU CLAIRE     NOT AVBL
BLACK RVR FLS  FAIR      73  56  55 SW9       29.97R
MEDFORD        PTSUNNY   67  59  76 SW10G20   29.95R
WAUSAU         PTSUNNY   68  60  75 W10       29.94S
WIS RAPIDS     FAIR      71  56  58 VRB3      29.98R
MARSHFIELD     FAIR      71  58  63 W10G20    29.97R
RICE LAKE      FAIR      74  56  53 SW9       29.95R
$$

...NORTHEAST IOWA...


CITY           SKY/WX    TMP DP  RH WIND       PRES   REMARKS
DECORAH        FAIR      73  59  60 VRB5      30.01R
MASON CITY     FAIR      76  59  55 SW15      30.03S
CHARLES CITY   FAIR      73  61  64 W9        30.03S
OELWEIN        FAIR      72  61  68 SW10      30.04S
$$

...ELSEWHERE IN IOWA...


CITY           SKY/WX    TMP DP  RH WIND       PRES   REMARKS
DES MOINES     FAIR      79  54  41 W6        30.05S
IOWA CITY        N/A    N/A N/A N/A MISG      30.06S
FORT DODGE     FAIR      77  61  57 W7        30.05R
$$

...NORTHERN ILLINOIS...


CITY           SKY/WX    TMP DP  RH WIND       PRES   REMARKS
CHICAGO-OHARE  PTSUNNY   72  58  61 W16G28    29.98R
CHICAGO-MIDWAY LGT RAIN  67  61  81 SW13      29.99R
MOLINE         FAIR      74  57  55 NW10G20   30.02S
ROCKFORD       PTSUNNY   72  58  61 W18       30.01S
PEORIA         FAIR      76  57  51 W15       30.03S
$$

NOTE: "FAIR" INDICATES FEW OR NO CLOUDS BELOW 12,000 FEET WITH NO
SIGNIFICANT WEATHER AND/OR OBSTRUCTIONS TO VISIBILITY. WIND
SPEEDS ARE IN MILES-PER-HOUR.



USA.gov is the U.S. government's official web portal to all federal, state and local government web resources and services.